Location: Drummondville
(45.8830°N, 72.4830°W)
Time: 04:08:55
(UTC-05:00)

ISS - Visible Passes

Search period start: 18 December 2017 00:00
Search period end: 28 December 2017 00:00
Orbit: 402 x 406 km, 51.6° (Epoch: 18 December)

Date Brightness Start Highest point End Pass type
(mag) Time Alt. Az. Time Alt. Az. Time Alt. Az.
18 Dec -0.5 17:09:00 10° W 17:10:52 14° SW 17:12:43 10° S visible
25 Dec -0.1 06:14:25 10° SE 06:15:10 11° SE 06:15:55 10° ESE visible
26 Dec -2.2 06:55:44 10° SSW 06:58:48 39° SE 07:01:54 10° ENE visible
27 Dec -1.2 06:03:58 10° SSW 06:06:35 22° SE 06:09:14 10° E visible
